Location: Wald
(31.7579°N, 86.6655°W)
Time: 11:58:19
(UTC+00:00)

Resurs 1-3 - Pass Details

Date: 14 July 2020
Orbit: 630 x 632 km, 97.9° (Epoch: 08 August)

Event Time Altitude Azimuth Distance (km) Brightness Sun altitude
Exits shadow 01:45:15 12° 142° (SE) 1,846 5.4 -10.3°
Maximum altitude 01:48:56 41° 74° (ENE) 914 4.1 -11.0°
Drops below altitude 10° 01:53:03 10° 4° (N) 2,015 6.6 -11.7°
Sets 01:55:21 0° 357° (N) 2,926 7.6 -12.1°
